�N����,����,�~����,�C��,���x,�C��,����,���ϕ���,�ő�u�ԕ���,�ő厞����,���˗�,�I�_���x,�n�����x,�ő啗���N��,DTYPE
"19/07/23","00:10",0.0,24.6,95.6,1001.9,318.0,0.2,0.8,336.7,0.00,23.9,25.1,"00:08:32",1
"19/07/23","00:20",0.0,24.6,95.7,1001.9,343.2,0.3,0.8,323.2,0.00,23.9,25.0,"00:11:44",1
"19/07/23","00:30",0.0,24.6,95.7,1001.5,295.6,0.5,0.9,322.3,0.00,23.9,25.1,"00:27:28",1
"19/07/23","00:40",0.0,24.5,95.6,1001.9,285.8,0.6,0.9,306.7,0.00,23.8,25.0,"00:30:08",1
"19/07/23","00:50",0.0,24.4,95.9,1001.7,301.9,0.5,0.8,317.2,0.00,23.7,25.0,"00:44:16",1
"19/07/23","01:00",0.0,24.4,95.8,1001.7,334.0,0.3,0.9,309.9,0.00,23.7,25.1,"00:56:48",1
"19/07/23","01:10",0.0,24.5,95.9,1001.9,298.3,0.3,0.6,308.6,0.00,23.8,25.1,"01:04:56",1
"19/07/23","01:20",0.0,24.4,95.9,1001.7,320.9,0.6,1.1,344.1,0.00,23.7,24.9,"01:18:40",1
"19/07/23","01:30",0.0,24.4,95.9,1001.7,307.8,0.6,1.0,323.2,0.00,23.7,25.1,"01:20:16",1
"19/07/23","01:40",0.0,24.4,96.0,1001.2,314.3,0.8,1.4,334.6,0.00,23.8,25.1,"01:37:52",1
"19/07/23","01:50",0.0,24.4,96.1,1001.5,330.7,0.7,1.2,333.4,0.00,23.8,25.0,"01:40:56",1
"19/07/23","02:00",0.0,24.5,96.1,1001.5,334.6,0.7,1.0,328.1,0.00,23.9,25.1,"01:50:08",1
"19/07/23","02:10",0.0,24.5,96.1,1001.5,279.0,0.5,0.8,317.6,0.00,23.9,25.1,"02:00:16",1
"19/07/23","02:20",0.0,24.4,96.1,1001.5,306.1,0.5,0.6,271.2,0.00,23.8,25.1,"02:10:40",1
"19/07/23","02:30",0.0,24.4,96.1,1001.0,284.1,0.5,0.6,273.3,0.00,23.8,25.0,"02:22:56",1
"19/07/23","02:40",0.0,24.4,96.1,1001.2,279.5,0.0,0.3,282.5,0.00,23.8,24.9,"02:33:52",1
"19/07/23","02:50",0.0,24.4,96.2,1001.0,325.4,0.7,1.6,341.1,0.00,23.8,24.9,"02:49:04",1
"19/07/23","03:00",0.0,24.5,96.2,1001.0,14.1,0.3,1.1,350.8,0.00,23.9,24.9,"02:52:24",1
"19/07/23","03:10",0.0,24.5,96.2,1001.0,263.0,0.6,1.2,274.5,0.00,23.9,25.0,"03:04:32",1
"19/07/23","03:20",0.0,24.5,96.2,1001.0,281.6,0.6,1.3,238.6,0.00,23.9,24.8,"03:19:28",1
"19/07/23","03:30",0.0,24.4,96.2,1000.8,274.0,0.8,1.3,238.3,0.00,23.8,24.9,"03:20:32",1
"19/07/23","03:40",0.0,24.4,96.2,1000.8,322.4,0.6,1.2,337.0,0.00,23.8,24.9,"03:38:16",1
"19/07/23","03:50",0.0,24.4,96.2,1001.2,352.5,0.6,1.7,337.7,0.00,23.8,24.8,"03:48:48",1
"19/07/23","04:00",0.0,24.4,96.3,1001.2,102.6,0.2,0.8,323.1,0.00,23.8,24.8,"03:50:32",1
"19/07/23","04:10",0.0,24.4,96.3,1001.2,342.7,0.7,1.7,345.7,0.00,23.8,24.9,"04:03:12",1
"19/07/23","04:20",0.0,24.5,96.3,1001.2,344.4,0.7,1.2,341.6,0.00,23.9,24.8,"04:12:24",1
"19/07/23","04:30",0.0,24.5,96.4,1001.2,333.3,0.7,0.9,318.2,0.00,23.9,25.0,"04:20:16",1
"19/07/23","04:40",0.0,24.5,96.3,1001.2,332.5,0.8,1.2,336.2,0.00,23.9,25.0,"04:33:04",1
"19/07/23","04:50",0.0,24.5,96.3,1001.2,334.1,1.0,1.4,337.7,0.00,23.9,24.8,"04:46:32",1
"19/07/23","05:00",0.0,24.5,96.4,1001.5,328.7,0.7,1.3,339.9,0.00,23.9,24.9,"04:53:36",1
"19/07/23","05:10",0.0,24.5,96.4,1001.7,296.1,0.7,1.2,331.1,0.00,23.9,24.8,"05:00:08",1
"19/07/23","05:20",0.0,24.4,96.4,1001.5,308.5,0.5,0.9,324.7,0.00,23.8,24.9,"05:18:40",1
"19/07/23","05:30",0.0,24.4,96.4,1001.7,317.9,0.6,0.9,327.2,0.00,23.8,24.7,"05:22:16",1
"19/07/23","05:40",0.0,24.3,96.6,1001.5,316.5,0.8,1.2,339.5,0.00,23.8,24.8,"05:38:32",1
"19/07/23","05:50",0.0,24.4,96.6,1001.7,289.6,0.7,1.2,332.0,0.00,23.9,24.8,"05:40:32",1
"19/07/23","06:00",0.0,24.3,96.5,1002.2,291.1,0.7,1.0,301.7,0.00,23.7,24.7,"05:55:52",1
"19/07/23","06:10",0.0,24.4,96.6,1002.2,318.9,0.6,1.0,329.8,0.00,23.9,24.8,"06:08:00",1
"19/07/23","06:20",0.0,24.3,96.5,1001.9,333.3,0.7,1.0,318.4,0.00,23.7,24.9,"06:12:48",1
"19/07/23","06:30",0.0,24.4,96.6,1001.9,345.8,0.8,1.2,339.2,0.00,23.9,24.7,"06:20:32",1
"19/07/23","06:40",0.0,24.5,96.6,1001.7,305.2,0.8,1.4,332.4,0.00,24.0,24.7,"06:30:08",1
"19/07/23","06:50",0.0,24.5,96.6,1002.2,282.2,0.6,0.9,296.3,0.01,24.0,24.7,"06:47:20",1
"19/07/23","07:00",0.0,24.6,96.4,1001.9,321.0,0.5,1.0,325.1,0.02,24.0,24.7,"06:54:08",1
"19/07/23","07:10",0.0,24.9,96.6,1001.9,301.5,0.6,0.9,290.9,0.03,24.4,24.7,"07:06:24",1
"19/07/23","07:20",0.0,24.8,96.2,1002.2,320.5,0.8,1.1,320.1,0.04,24.2,24.8,"07:10:40",1
"19/07/23","07:30",0.0,24.9,96.2,1001.9,289.0,0.6,0.8,299.2,0.06,24.3,24.8,"07:23:36",1
"19/07/23","07:40",0.0,25.2,96.6,1001.7,303.9,0.6,1.2,331.0,0.09,24.7,24.9,"07:35:04",1
"19/07/23","07:50",0.0,25.2,96.2,1001.7,317.6,1.0,1.8,336.3,0.12,24.6,24.9,"07:47:20",1
"19/07/23","08:00",0.0,25.4,95.4,1001.5,324.0,0.6,1.3,323.9,0.15,24.7,25.3,"07:53:36",1
"19/07/23","08:10",0.0,25.7,95.2,1001.5,281.3,0.3,1.1,348.1,0.12,24.9,25.1,"08:03:04",1
"19/07/23","08:20",0.0,25.8,94.2,1001.5,236.5,0.3,1.0,235.5,0.19,24.8,25.3,"08:15:20",1
"19/07/23","08:30",0.0,26.1,93.4,1001.2,267.5,0.3,1.3,200.8,0.13,25.0,25.3,"08:27:04",1
"19/07/23","08:40",0.0,26.6,91.8,1001.0,73.7,0.2,1.0,54.5,0.14,25.2,25.6,"08:35:36",1
"19/07/23","08:50",0.0,26.9,90.7,1001.0,229.1,0.3,0.9,136.8,0.13,25.3,25.6,"08:42:00",1
"19/07/23","09:00",0.0,27.5,87.7,1000.8,13.3,0.8,2.0,351.8,0.32,25.3,25.9,"08:56:40",1
"19/07/23","09:10",0.0,27.9,86.3,1001.0,27.1,0.6,1.3,11.8,0.27,25.4,26.0,"09:06:56",1
"19/07/23","09:20",0.0,28.0,85.5,1001.5,17.6,0.8,1.8,355.3,0.35,25.4,26.1,"09:16:00",1
"19/07/23","09:30",0.0,28.3,83.3,1001.5,70.8,0.6,2.0,2.7,0.31,25.2,26.3,"09:27:20",1
"19/07/23","09:40",0.0,28.1,84.0,1001.0,41.2,0.8,1.6,52.3,0.15,25.2,26.2,"09:32:00",1
"19/07/23","09:50",0.0,27.8,83.9,1000.8,133.0,0.6,1.7,232.0,0.13,24.9,26.5,"09:40:56",1
"19/07/23","10:00",0.0,28.6,82.0,1000.5,155.5,0.6,1.3,230.6,0.22,25.3,26.7,"09:58:32",1
"19/07/23","10:10",0.0,28.2,79.9,1000.8,252.6,0.8,2.0,206.3,0.12,24.4,26.7,"10:02:40",1
"19/07/23","10:20",0.0,28.2,79.5,1000.3,279.9,0.8,2.4,222.8,0.10,24.4,26.7,"10:10:02",1
"19/07/23","10:30",0.0,29.8,74.9,1000.5,217.9,1.3,2.6,211.4,0.51,24.9,26.8,"10:26:00",1
"19/07/23","10:40",0.0,29.9,74.1,1000.8,220.3,1.5,3.2,187.5,0.52,24.8,27.1,"10:37:52",1
"19/07/23","10:50",0.0,30.3,73.3,1000.8,223.9,1.2,3.1,214.9,0.51,25.0,27.3,"10:45:14",1
"19/07/23","11:00",0.0,30.5,71.3,1000.8,215.4,1.5,3.4,185.0,0.53,24.8,27.2,"10:54:32",1
"19/07/23","11:10",0.0,30.8,70.4,1001.0,202.5,2.0,3.9,204.4,0.58,24.8,27.5,"11:06:00",1
"19/07/23","11:20",0.0,30.8,71.2,1001.0,241.2,1.3,4.7,219.0,0.59,25.0,27.8,"11:17:20",1
"19/07/23","11:30",0.0,30.5,68.2,1001.0,218.2,1.8,4.5,193.3,0.54,24.0,28.1,"11:26:40",1
"19/07/23","11:40",0.0,31.4,68.4,1000.8,204.5,0.8,2.8,202.9,0.59,24.9,28.2,"11:37:28",1
"19/07/23","11:50",0.0,31.6,66.9,1001.2,203.3,1.0,3.1,215.4,0.59,24.7,28.6,"11:48:56",1
"19/07/23","12:00",0.0,30.8,68.6,1001.2,209.5,1.2,3.3,196.7,0.36,24.4,28.6,"11:54:56",1
"19/07/23","12:10",0.0,31.5,64.5,1000.8,210.9,1.5,3.6,222.3,0.45,24.0,28.8,"12:09:28",1
"19/07/23","12:20",0.0,31.2,66.1,1000.5,177.2,1.6,4.1,134.4,0.52,24.2,28.9,"12:16:56",1
"19/07/23","12:30",0.0,32.0,64.2,1000.5,220.1,1.7,3.2,227.0,0.57,24.4,29.4,"12:23:12",1
"19/07/23","12:40",0.0,31.3,65.5,1000.5,282.0,0.8,3.5,224.2,0.24,24.1,29.2,"12:38:08",1
"19/07/23","12:50",0.0,31.2,66.0,1000.0,216.0,1.1,2.8,214.9,0.29,24.1,29.3,"12:42:40",1
"19/07/23","13:00",0.0,32.0,64.1,1000.0,43.9,1.0,2.4,7.1,0.27,24.4,29.3,"12:53:36",1
"19/07/23","13:10",0.0,32.1,64.8,1000.0,257.0,1.1,2.8,205.5,0.38,24.7,29.2,"13:07:28",1
"19/07/23","13:20",0.2,32.4,63.1,1000.0,154.7,1.2,3.3,222.5,0.48,24.5,29.2,"13:10:48",1
"19/07/23","13:30",0.0,31.8,62.7,1000.5,244.4,1.1,2.7,10.4,0.29,23.8,29.3,"13:20:08",1
"19/07/23","13:40",0.0,31.7,65.4,999.6,232.2,1.6,4.2,223.9,0.25,24.5,29.3,"13:36:32",1
"19/07/23","13:50",0.0,32.1,65.4,999.6,252.3,1.5,4.7,212.4,0.49,24.8,29.3,"13:49:52",1
"19/07/23","14:00",0.0,32.3,66.5,999.6,195.7,1.8,4.5,216.7,0.51,25.3,29.1,"13:51:20",1
"19/07/23","14:10",0.0,32.5,66.1,1000.0,205.7,2.0,5.2,226.1,0.57,25.4,29.5,"14:06:16",1
"19/07/23","14:20",0.0,32.3,66.2,999.8,192.3,2.6,6.0,223.4,0.52,25.2,29.4,"14:11:44",1
"19/07/23","14:30",0.0,33.4,62.7,999.8,177.7,1.6,3.4,223.6,0.53,25.3,29.4,"14:22:32",1
"19/07/23","14:40",0.0,32.9,61.6,1000.0,228.2,1.8,3.9,228.1,0.49,24.6,29.5,"14:37:04",1
"19/07/23","14:50",0.0,33.1,63.2,1000.0,211.7,1.7,3.1,225.8,0.49,25.2,29.6,"14:42:56",1
"19/07/23","15:00",0.0,32.8,62.9,999.8,210.9,2.2,4.7,217.3,0.38,24.8,29.8,"14:58:32",1
"19/07/23","15:10",0.0,32.3,65.3,999.3,212.2,2.8,4.9,223.1,0.43,25.0,29.6,"15:00:40",1
"19/07/23","15:20",0.0,32.1,64.6,999.3,208.8,1.7,3.4,229.7,0.25,24.6,29.8,"15:13:28",1
"19/07/23","15:30",0.0,31.8,64.9,999.3,223.3,1.6,3.3,220.0,0.15,24.4,29.6,"15:26:00",1
"19/07/23","15:40",0.0,31.0,65.3,998.4,240.0,2.0,5.1,204.6,0.03,23.8,29.7,"15:38:00",1
"19/07/23","15:50",0.0,29.7,69.8,997.7,237.7,2.7,5.2,224.7,0.01,23.6,29.4,"15:48:48",1
"19/07/23","16:00",1.6,28.4,74.0,997.7,267.4,1.5,3.9,223.7,0.00,23.4,29.2,"15:50:08",1
"19/07/23","16:10",4.8,25.9,80.4,997.9,275.1,2.5,5.6,275.3,0.00,22.3,28.9,"16:08:18",1
"19/07/23","16:20",7.6,26.0,83.3,998.4,111.6,2.1,4.8,222.9,0.00,23.0,28.5,"16:10:16",1
"19/07/23","16:30",1.8,25.6,85.4,998.6,92.9,1.3,3.2,119.6,0.00,23.0,28.2,"16:23:44",1
"19/07/23","16:40",0.2,25.3,86.1,998.4,122.7,0.5,1.6,99.7,0.01,22.8,27.9,"16:31:12",1
"19/07/23","16:50",0.0,25.2,87.3,998.4,55.7,0.6,1.8,61.3,0.01,23.0,27.6,"16:45:12",1
"19/07/23","17:00",0.2,25.4,88.2,998.6,293.2,0.3,1.0,353.9,0.02,23.3,27.7,"16:53:52",1
"19/07/23","17:10",0.2,25.6,89.1,998.6,217.9,0.6,1.6,215.7,0.04,23.7,27.6,"17:04:48",1
"19/07/23","17:20",0.0,25.8,88.5,998.9,178.7,0.6,1.2,194.1,0.07,23.8,27.7,"17:13:44",1
"19/07/23","17:30",0.0,25.5,89.2,998.9,126.5,1.0,2.5,111.7,0.04,23.6,27.5,"17:23:04",1
"19/07/23","17:40",0.0,25.5,89.9,999.3,153.5,0.5,1.1,148.4,0.03,23.8,27.5,"17:32:00",1
"19/07/23","17:50",0.0,25.5,89.8,999.1,194.8,0.8,2.1,192.2,0.03,23.7,27.5,"17:44:40",1
"19/07/23","18:00",0.0,25.7,90.7,999.1,175.2,0.3,1.0,108.6,0.05,24.1,27.3,"17:52:24",1
"19/07/23","18:10",0.0,25.8,90.5,999.3,341.0,0.8,1.6,335.4,0.03,24.2,27.5,"18:09:24",1
"19/07/23","18:20",0.0,25.6,90.6,999.6,343.8,0.8,1.4,358.4,0.02,24.0,27.3,"18:19:28",1
"19/07/23","18:30",0.0,25.6,90.7,999.1,345.2,0.8,1.8,340.8,0.01,24.0,27.3,"18:22:48",1
"19/07/23","18:40",0.0,25.6,90.9,999.3,266.3,0.5,1.1,197.3,0.00,24.0,27.2,"18:38:00",1
"19/07/23","18:50",0.0,25.5,91.1,999.6,234.6,0.7,1.9,224.4,0.00,24.0,27.3,"18:46:00",1
"19/07/23","19:00",0.0,25.5,91.4,999.6,246.7,0.6,1.8,240.2,0.00,24.0,27.3,"18:59:04",1
"19/07/23","19:10",0.0,25.4,91.4,999.3,291.6,0.7,1.3,326.0,0.00,23.9,27.0,"19:01:20",1
"19/07/23","19:20",0.0,25.5,91.9,999.6,305.2,1.0,1.6,339.7,0.00,24.1,27.3,"19:14:56",1
"19/07/23","19:30",0.0,25.4,92.0,999.6,336.1,1.0,1.6,336.6,0.00,24.0,26.9,"19:23:44",1
"19/07/23","19:40",0.0,25.3,92.4,999.8,321.2,0.7,1.2,325.3,0.00,24.0,27.0,"19:30:02",1
"19/07/23","19:50",0.0,25.3,92.6,1000.0,280.0,0.2,1.0,329.5,0.00,24.1,27.0,"19:40:08",1
"19/07/23","20:00",0.0,25.2,92.8,1000.0,343.1,0.8,1.3,358.2,0.00,24.0,27.0,"19:52:24",1
"19/07/23","20:10",0.0,25.3,92.7,1000.0,334.7,0.6,1.6,337.7,0.00,24.1,26.9,"20:08:00",1
"19/07/23","20:20",0.0,25.0,92.8,1000.0,321.2,1.1,1.6,332.1,0.00,23.8,26.9,"20:11:52",1
"19/07/23","20:30",0.0,25.0,93.0,1000.0,318.5,1.1,2.1,338.3,0.00,23.8,26.8,"20:27:28",1
"19/07/23","20:40",0.0,24.9,93.2,1000.0,296.8,0.8,1.4,333.8,0.00,23.8,26.8,"20:31:28",1
"19/07/23","20:50",0.4,24.9,93.3,1000.0,337.8,1.2,2.0,346.6,0.00,23.8,26.8,"20:41:28",1
"19/07/23","21:00",0.2,24.9,93.5,1000.3,328.1,0.6,1.3,346.7,0.00,23.8,26.7,"20:57:12",1
"19/07/23","21:10",0.0,24.7,93.7,1000.5,289.3,0.5,1.0,312.3,0.00,23.7,26.5,"21:04:08",1
"19/07/23","21:20",0.0,24.7,93.7,1000.3,264.3,0.3,1.0,265.2,0.00,23.7,26.7,"21:18:08",1
"19/07/23","21:30",0.0,24.6,94.0,1000.3,314.7,0.7,1.4,339.1,0.00,23.6,26.6,"21:29:44",1
"19/07/23","21:40",0.0,24.6,94.0,1000.8,305.4,0.7,1.6,341.6,0.00,23.6,26.5,"21:36:00",1
"19/07/23","21:50",0.0,24.5,94.2,1000.8,303.7,0.6,1.2,321.5,0.00,23.5,26.4,"21:43:12",1
"19/07/23","22:00",0.0,24.4,94.1,1000.5,276.8,0.5,0.9,340.3,0.00,23.4,26.2,"21:50:16",1
"19/07/23","22:10",0.0,24.4,94.2,1000.8,268.8,0.5,1.0,300.5,0.00,23.4,26.5,"22:04:00",1
"19/07/23","22:20",0.0,24.3,94.4,1000.5,279.7,0.5,0.9,309.6,0.00,23.4,26.2,"22:14:56",1
"19/07/23","22:30",0.0,24.2,94.4,1000.5,284.0,0.5,0.8,325.9,0.00,23.3,26.3,"22:25:20",1
"19/07/23","22:40",0.0,24.2,94.6,1000.5,306.2,0.6,1.2,334.4,0.00,23.3,26.2,"22:37:20",1
"19/07/23","22:50",0.0,24.1,94.6,1000.5,260.7,0.6,0.8,265.9,0.00,23.2,26.2,"22:42:32",1
"19/07/23","23:00",0.0,24.0,94.7,1001.0,278.5,0.6,1.0,315.8,0.00,23.1,26.4,"22:53:04",1
"19/07/23","23:10",0.0,23.9,94.8,1000.8,308.6,0.6,1.0,324.5,0.00,23.1,26.1,"23:08:56",1
"19/07/23","23:20",0.0,23.8,95.0,1001.0,315.6,0.8,1.1,327.3,0.00,23.0,26.3,"23:17:28",1
"19/07/23","23:30",0.0,23.9,95.0,1000.8,295.1,0.6,1.0,330.3,0.00,23.1,25.9,"23:20:40",1
"19/07/23","23:40",0.0,23.7,95.0,1001.0,273.2,0.5,1.3,257.8,0.00,22.9,25.8,"23:38:16",1
"19/07/23","23:50",0.0,23.7,95.2,1000.8,315.0,0.7,1.3,330.4,0.00,22.9,25.8,"23:44:48",1
"19/07/23","24:00",0.0,23.7,95.3,1000.8,318.4,0.7,1.4,333.6,0.00,22.9,25.8,"23:51:28",1
